LUCH-5V

Last updated on Mon Oct 20 2025 00:02:48 GMT+0000 (Coordinated Universal Time)

1 39727U 14023A 25292.28612397 -.00000268 00000+0 00000+0 0 9991 2 39727 4.5291 72.0078 0003506 173.6800 340.1318 1.00271852 41948
UTC large
Height (km)
Speed (km/s)
/
Latitude / Longitude
Inclination (degrees)
Orbital Period (minutes)
Azimuth
Elevation
Range (km)
Doppler Factor

Next 0 passes for location: London (51.5072 / 0.1276)

Sorry there are no passes over London.